Probability
0 0 0 0 0 0 0 0 0 0 0 0 0 0 0 0 0 0 0 0 0 0 0 0 0 0 0 0 0 0 0 0 0 0 0 0 0 0 0 0 0 0 0
0 0 0 0 0 0 0 0 0 0 0 0 0 0 0 0 0 0 0 0 0 0 0 0 0 0 0 0 0 0 0 0 0 0 0 0 0 0 0 0 0 0 0
0 0 0 0 0 0 0 0 0 0 0 0 0 0 0 0 0 0 0 0 0 0 0 0 0 0 0 0 0 0 0 0 0 0 0 0 0 0 0 0 0 0 0
0 0 0 0 0 0 0 0 0 0 0 0 0 0 0 0 0 0 0 0 0 0 0 0 0 0 0 0 0 0 0 0 0 0 0 0 0 0 0 0 0 0 0
0 0 0 0 0 0 0 0 0 0 0 0 0 0 0 0 0 0 0 0 0 0 0 0 0 0 0 0 0 0 0 0 0 0 0 0 0 0 0 0 0 0 0
0 0 0 0 0 0 0 0 0 0 0 0 0 0 0 0 0 0 0 0 0 0 0 0 0 0 0 0 0 0 0 0 0 0 0 0 0 0 0 0 0 0 0
0 0 0 0 0 0 0 0 0 0 0 0 0 0 0 0 0 0 0 0 0 0 0 0 0 0 0 0 0 0 0 0 0 0 0 0 0 0 0 0 0 0 0
0 0 0 0 0 0 0 0 0 0 0 0 0 0 0 0 0 0 0 0 0 0 0 0 0 0 0 0 0 0 0 0 0 0 0 0 0 0 0 0 0 0 0
0 0 0 0 0 0 0 0 0 0 0 0 0 0 0 0 0 0 0 0 0 0 0 0 0 0 0 0 0 0 0 0 0 0 0 0 0 0 0 0 0 0 0
0 0 0 0 0 0 0 0 0 0 0 0 0 0 0 0 0 0 0 0 0 0 0 0 0 0 0 0 0 0 0 0 0 0 0 0 0 0 0 0 0 0 0
0 0 0 0 0 0 0 0 0 0 0 0 0 0 0 0 0 0 0 0 0 0 0 0 0 0 0 0 0 0 0 0 0 0 0 0 0 0 0 0 0 0 0
0 0 0 0 0 0 0 0 0 0 0 0 0 0 0 0 0 0 0 0 0 0 0 0 0 0 0 0 0 0 0 0 0 0 0 0 0 0 0 0 0 0 0
0 0 0 0 0 0 0 0 0 0 0 0 0 0 0 0 0 0 0 0 0 0 0 0 0 0 0 0 0 0 0 0 0 0 0 0 0 0 0 0 0 0 0
0 0 0 0 0 0 0 0 0 0 0 0 0 0 0 0 0 0 0 0 0 0 0 0 0 0 0 0 0 0 0 0 0 0 0 0 0 0 0 0 0 0 0
0 0 0 0 0 0 0 0 0 0 0 0 0 0 0 0 0 0 0 0 0 0 0 0 0 0 0 0 0 0 0 0 0 0 0 0 0 0 0 0 0 0 0
0 0 0 0 0 0 0 0 0 0 0 0 0 0 0 0 0 0 0 0 0 0 0 0 0 0 0 0 0 0 0 0 0 0 0 0 0 0 0 0 0 0 0
0 0 0 0 0 0 0 0 0 0 0 0 0 0 0 0 0 0 0 0 0 0 0 0 0 0 0 0 0 0 0 0 0 0 0 0 0 0 0 0 0 0 0
0 0 0 0 0 0 0 0 0 0 0 0 0 0 0 0 0 0 0 0 0 0 0 0 0 0 0 0 0 0 0 0 0 0 0 0 0 0 0 0 0 0 0
0 0 0 0 0 0 0 0 0 0 0 0 0 0 0 0 0 0 0 0 0 0 0 0 0 0 0 0 0 0 0 0 0 0 0 0 0 0 0 0 0 0 0
0 0 0 0 0 0 0 0 0 0 0 0 0 0 0 0 0 0 0 0 0 0 0 0 0 0 0 0 0 0 0 0 0 0 0 0 0 0 0 0 0 0 0
0 0 0 0 0 0 0 0 0 0 0 0 0 0 0 0 0 0 0 0 0 0 0 0 0 0 0 0 0 0 0 0 0 0 0 0 0 0 0 0 0 0 0
0 0 0 0 0 0 0 0 0 0 0 0 0 0 0 0 0 0 0 0 0 0 0 0 0 0 0 0 0 0 0 0 0 0 0 0 0 0 0 0 0 0 0
0 0 0 0 0 0 0 0 0 0 0 0 0 0 0 0 0 0 0 0 0 0 0 0 0 0 0 0 0 0 0 0 0 0 0 0 0 0 0 0 0 0 0
0 0 0 0 0 0 0 0 0 0 0 0 0 0 0 0 0 0 0 0 0 0 0 0 0 0 0 0 0 0 0 0 0 0 0 0 0 0 0 0 0 0 0
0 0 0 0 0 0 0 0 0 0 0 0 0 0 0 0 0 0 0 0 0 0 0 0 0 0 0 0 0 0 0 0 0 0 0 0 0 0 0 0 0 0 0
0 0 0 0 0 0 0 0 0 0 0 0 0 0 0 0 0 0 0 0 0 0 0 0 0 0 0 0 0 0 0 0 0 0 0 0 0 0 0 0 0 0 0
Wind_Speed
6 5 5 5 5 5 5 4 4 5 4 4 3 3 3 2 3 2 2 8 10 11 12 12 13 13 14 15 15 16 17 17 18 18 18 19 19 19 20 20 20 21 22
7 6 6 6 5 5 5 5 5 4 4 3 4 4 4 4 3 3 3 5 10 12 12 13 13 13 14 15 16 16 17 18 19 19 19 20 20 20 20 20 21 21 21
9 8 7 6 6 6 6 5 5 3 3 4 4 5 4 4 4 4 4 3 4 9 13 13 13 14 15 15 16 17 18 19 19 20 20 21 21 21 21 21 21 21 22
10 8 7 7 7 6 5 5 4 4 4 4 4 4 4 4 5 5 5 4 4 4 8 14 15 15 16 16 17 18 19 20 20 21 21 21 22 22 22 22 23 23 23
12 9 8 7 8 6 6 7 6 5 5 5 5 5 4 4 5 6 6 6 6 5 5 10 16 17 17 18 19 19 20 21 21 22 22 22 23 23 23 23 24 24 24
13 10 7 9 8 7 7 7 7 6 5 4 5 5 4 5 5 6 7 6 5 7 6 7 7 10 18 19 19 20 21 22 22 23 23 23 24 24 24 25 25 25 25
14 12 9 9 9 9 10 9 7 7 6 4 2 3 5 8 9 8 6 6 7 7 7 7 6 5 7 17 20 21 22 23 23 24 24 24 25 25 25 26 26 26 27
15 14 13 10 11 9 11 12 9 6 6 7 5 3 3 4 8 10 7 7 7 6 7 9 7 7 6 5 13 22 23 24 25 25 25 25 25 26 26 27 27 27 27
15 14 15 12 12 12 12 14 12 13 9 8 7 6 6 7 3 3 7 8 7 6 6 6 8 9 9 7 8 17 24 25 26 26 26 26 26 27 27 28 28 28 28
14 15 15 15 13 12 12 13 14 11 9 8 7 7 5 5 4 3 3 6 8 8 8 9 9 9 10 8 12 20 25 26 26 27 27 27 27 28 28 28 28 29 29
14 15 15 15 15 12 13 12 13 13 12 11 8 6 6 5 4 5 5 4 5 6 7 8 8 8 9 9 8 15 25 26 27 27 27 28 28 29 29 29 30 30 30
10 15 14 14 14 13 13 13 12 14 13 13 10 8 8 7 9 9 10 7 6 5 7 7 7 7 7 7 12 23 26 27 27 27 27 28 29 29 30 30 31 31 31
10 13 15 15 14 14 12 11 13 14 15 14 14 12 10 9 5 7 8 6 7 5 5 6 7 7 9 7 10 24 24 26 26 27 28 28 29 30 30 31 31 32 32
10 10 14 15 16 14 14 13 12 14 12 15 16 14 10 10 8 8 8 6 5 5 7 8 5 8 8 7 12 22 14 24 27 28 29 29 30 30 31 32 32 33 33
8 10 13 15 15 15 15 14 13 14 12 13 13 14 12 9 8 8 7 7 7 6 7 7 6 6 6 5 13 9 8 20 27 29 30 30 31 32 32 33 33 34 34
9 9 10 13 14 15 15 15 13 12 14 13 11 13 13 10 8 8 8 8 8 8 7 6 7 5 5 8 15 11 9 25 28 30 30 31 32 32 33 33 34 34 35
10 11 11 11 13 14 15 15 16 13 16 15 13 14 15 13 10 9 8 8 9 10 12 8 6 7 8 10 11 9 10 11 13 28 31 32 32 33 33 34 35 35 36
10 11 10 11 12 13 14 16 17 16 17 17 16 15 16 13 14 11 10 11 11 11 11 12 8 7 10 10 10 11 13 13 10 23 30 31 32 33 34 34 35 35 36
10 10 10 12 12 12 13 15 16 16 16 16 15 16 16 15 16 13 13 12 11 11 10 10 10 8 9 9 9 12 14 11 13 18 25 27 29 31 33 34 35 35 36
9 10 11 11 11 11 12 13 13 14 14 14 15 16 16 17 16 15 14 14 12 11 10 10 10 9 9 9 8 10 11 9 11 12 17 21 26 31 33 34 35 35 35
9 9 9 10 9 9 10 11 11 12 13 13 14 15 16 20 23 19 14 12 12 11 10 10 10 9 10 9 9 8 11 9 10 9 10 11 12 12 14 23 30 33 35
9 8 9 10 11 10 18 25 18 12 13 13 14 13 15 22 26 33 32 27 21 15 13 12 11 12 12 10 8 9 10 11 13 6 9 12 9 12 11 10 23 33 35
9 9 10 10 12 14 23 26 27 15 13 13 14 12 13 15 22 15 23 30 28 30 26 16 14 14 13 10 9 12 12 13 15 8 9 15 9 13 11 15 29 32 34
8 9 10 11 11 14 23 24 25 17 12 14 14 14 14 13 15 16 14 14 14 15 17 13 11 12 11 10 11 13 14 14 14 9 8 14 12 12 13 10 23 31 33
8 8 8 9 10 12 20 22 23 9 10 12 13 14 15 14 22 27 18 15 15 14 20 26 25 22 26 27 21 11 10 12 14 10 5 9 13 14 13 12 15 28 30
8 8 8 8 10 10 16 21 21 7 9 9 10 13 23 22 24 27 18 14 15 13 10 11 15 18 15 16 23 13 8 10 13 12 5 6 10 11 13 9 9 9 12
Wind_Direction
179 182 190 185 189 187 188 203 216 206 201 211 215 224 241 257 262 266 279 295 301 306 309 312 315 317 317 318 318 320 320 320 320 320 321 322 322 323 323 322 322 322 322
180 186 191 190 191 192 187 195 208 202 201 203 220 230 234 241 244 252 246 276 289 295 297 299 303 305 307 308 310 311 313 313 314 314 315 315 315 316 316 315 315 315 315
185 187 192 191 191 190 190 194 209 196 205 209 217 229 229 230 239 251 253 240 258 279 285 287 290 293 296 299 302 304 306 307 308 308 308 309 309 310 309 309 309 309 309
190 189 193 194 187 184 185 187 196 191 207 210 217 225 220 218 229 239 240 236 228 243 268 277 283 285 288 292 295 297 298 300 302 303 303 304 305 305 304 304 304 303 303
196 193 194 194 185 185 187 194 196 193 201 207 212 218 220 222 227 239 236 231 226 224 225 260 271 278 282 285 287 289 292 294 296 298 299 301 301 301 301 300 300 299 298
198 197 196 195 188 188 192 194 197 197 199 197 215 227 225 225 226 230 233 233 224 224 225 233 249 267 272 278 281 284 286 289 291 293 296 297 297 297 297 296 296 296 295
196 198 200 198 196 197 197 193 189 196 202 178 185 263 257 234 231 229 222 220 224 224 222 223 223 226 253 267 274 280 283 286 287 290 291 292 293 294 293 292 292 292 292
197 202 203 201 200 198 199 198 191 188 194 182 171 183 266 271 234 225 211 212 218 216 222 228 225 226 227 232 255 268 275 280 283 286 287 289 290 290 290 290 290 289 288
201 202 205 203 203 202 206 203 195 192 199 195 183 168 188 225 255 233 214 214 214 213 219 223 228 229 231 230 239 259 267 273 277 280 283 285 286 287 287 287 287 287 287
207 206 205 207 208 208 210 207 204 199 190 195 201 207 196 170 178 251 262 225 217 218 221 230 236 231 231 230 239 250 261 267 272 276 279 282 284 286 287 287 287 287 287
214 211 208 209 212 213 212 209 207 204 204 201 192 182 208 217 189 189 240 242 231 223 222 225 230 230 230 229 231 249 261 267 270 273 276 280 283 286 287 288 288 288 287
216 215 213 213 214 216 214 211 210 210 210 210 207 195 180 183 197 199 216 221 228 230 226 226 229 229 230 232 243 257 263 266 269 272 276 280 283 284 285 286 286 286 285
220 216 214 217 217 218 215 210 212 215 213 211 213 215 209 206 179 184 200 212 223 228 229 234 235 235 241 235 242 257 263 268 271 274 277 280 281 282 283 283 283 283 283
226 213 212 217 218 216 217 215 218 219 216 218 219 217 218 214 206 197 195 191 219 233 227 233 237 233 238 233 243 260 264 269 273 276 278 279 280 280 280 280 280 280 280
228 215 211 214 216 216 217 216 222 221 219 220 220 218 221 219 213 210 205 197 200 224 232 218 229 233 230 234 258 263 252 265 272 274 276 277 279 279 279 279 279 279 279
231 224 217 214 215 216 216 217 223 220 219 220 216 217 220 218 216 213 214 213 211 220 237 216 222 233 252 264 268 267 260 271 275 277 279 279 279 279 279 279 279 278 277
231 230 226 221 218 217 215 218 222 217 221 222 218 217 219 213 215 216 215 215 220 222 243 242 232 248 252 257 265 263 264 262 265 271 275 276 277 278 278 278 278 278 277
234 232 229 228 225 220 216 218 222 220 220 221 219 218 219 214 216 215 216 218 222 224 234 249 246 247 251 253 255 259 266 266 260 268 273 276 278 278 279 279 279 278 278
240 235 231 232 230 224 219 220 221 222 222 222 218 217 217 213 216 216 217 220 224 229 230 243 250 248 254 255 259 263 262 262 265 270 274 277 279 280 280 280 280 279 279
241 239 236 235 231 226 224 224 221 222 222 221 219 218 216 214 216 215 219 221 223 228 230 239 249 252 255 253 251 261 267 258 263 268 273 276 278 280 281 282 282 281 280
251 245 242 241 234 228 227 225 224 224 222 222 220 219 218 218 219 218 220 219 220 225 229 237 246 252 253 251 251 254 265 270 263 260 268 269 272 270 272 276 278 279 278
257 249 244 243 241 237 244 243 237 227 225 224 225 222 222 229 230 230 229 226 219 220 226 231 240 245 251 250 253 257 267 275 278 243 255 269 265 270 269 264 272 275 275
255 249 245 241 243 245 251 252 249 235 222 225 225 223 224 226 229 230 238 240 236 233 229 227 237 244 252 253 256 265 265 267 272 272 276 279 270 273 272 274 279 279 279
259 254 248 243 244 247 254 256 254 246 227 223 222 221 222 223 224 222 224 232 239 244 245 242 241 249 254 258 255 261 269 273 272 265 256 277 282 279 279 274 280 280 280
268 263 256 248 247 252 256 259 256 240 233 227 221 219 220 221 227 229 225 225 232 239 248 248 249 253 257 262 265 267 269 277 282 277 239 265 281 285 282 277 276 279 279
272 270 265 255 252 252 257 260 258 239 236 233 225 221 224 222 226 231 227 221 228 232 230 243 253 261 265 269 274 268 263 272 279 284 251 255 278 289 289 268 259 268 276